Home   Weather   Porto Alegre   Past weeks
Flag for Brazil

Past Weather in Porto Alegre, Rio Grande do Sul, Brazil — Yesterday and Last 2 Weeks

Now
70 °F

Clear.


Feels Like: 70 °F
Forecast: 92 / 68 °F
Wind: 6 mph from Northeast

Location: Porto Alegre Aero-Porto

Current Time: Feb 22, 2019 at 7:58:22 am

Latest Report: Feb 22, 2019 at 7:00 am


Visibility: 6 mi

Pressure: 29.95 "Hg

Humidity: 94%

Dew Point: 68 °F

Location of Porto AlegreLocation

Past Weather in Porto Alegre — Graph

°F

Porto Alegre Temperature Yesterday

Maximum temperature yesterday: 93 °F (at 2:00 pm)
Minimum temperature yesterday: 68 °F (at 6:00 am)
Average temperature yesterday: 80 °F

High & Low Weather Summary for the Past Weeks

 TemperatureHumidityPressure
High97 °F (Feb 9, 5:00 pm)100% (Feb 11, 7:34 pm)30.15 "Hg (Feb 11, 7:34 pm)
Low64 °F (Feb 13, 3:00 am)30% (Feb 21, 4:00 pm)29.65 "Hg (Feb 11, 4:00 pm)
Average78 °F74%29.87 "Hg
* Reported Feb 7 8:00 am — Feb 22 7:00 am, Porto Alegre. Weather by CustomWeather, © 2019

Note: Actual official high and low records may vary slightly from our data, if they occured in-between our weather recording intervals... More about our weather records

Advertising

Porto Alegre Weather History for the Previous 24 Hours

Scroll right to see more
 ConditionsComfort  
Time TempWeatherWind HumidityBarometerVisibility
7:00 am
Fri, Feb 22
70 °FClear.6 mph94%29.95 "Hg6 mi
6:00 am70 °FClear.1 mph88%29.95 "Hg10 mi
5:00 am70 °FClear.2 mph94%29.95 "Hg10 mi
4:00 am72 °FClear.1 mph88%29.95 "Hg10 mi
3:00 am72 °FClear.5 mph88%29.95 "Hg10 mi
2:00 am73 °FClear.7 mph89%29.95 "Hg10 mi
1:00 am75 °FClear.12 mph83%29.95 "Hg10 mi
12:00 am75 °FClear.13 mph89%29.95 "Hg10 mi
11:00 pm
Thu, Feb 21
75 °FClear.12 mph89%29.98 "Hg10 mi
10:00 pm77 °FClear.13 mph83%29.95 "Hg10 mi
9:00 pm77 °FClear.15 mph83%29.95 "Hg10 mi
8:00 pm79 °FClear.18 mph74%29.92 "Hg10 mi
7:00 pm84 °FSunny.16 mph62%29.92 "Hg10 mi
6:00 pm86 °FSunny.15 mph55%29.89 "Hg10 mi
5:00 pm91 °FSunny.14 mph38%29.89 "Hg10 mi
4:00 pm93 °FPassing clouds.8 mph30%29.89 "HgN/A
2:00 pm93 °FPassing clouds.6 mph32%29.95 "HgN/A
1:00 pm90 °FPassing clouds.5 mph41%29.98 "HgN/A
12:00 pm88 °FSunny.5 mph49%29.98 "Hg10 mi
11:00 am84 °FPassing clouds.3 mph62%30.01 "HgN/A
10:00 am81 °FSunny.3 mph74%30.01 "Hg10 mi
9:00 am79 °FPassing clouds.3 mph79%29.98 "HgN/A
8:00 am77 °FClear.2 mph83%29.95 "Hg6 mi
7:00 am72 °FClear.1 mph94%29.95 "Hg6 mi
Weather by CustomWeather, © 2019

See weather overview